Find Starlink 32900

NORAD ID: 63093 Int'l Des: 2025-037 Owner: SPXS Country: US Constellation: starlink operational
LEOCIRCULAR

リアルタイム位置

3D地球を読み込み中...

Starlink 32900について

説明を読み込み中...

次回通過

Passes for default location (London). Set your location on the main map for personalized predictions.

高度履歴

Loading altitude history...

軌道要素

1 63093U 25037S 26122.36880458 .00000446 00000-0 45202-4 0 9994
2 63093 70.0035 219.0695 0002894 267.1571 92.9257 14.98332587 66503
Epoch: May 2, 2026 • Age: 10 hours

現在のステータス

高度 577.0 km
速度 7.57 km/s
衛星直下点 -15.04°S, 107.21°W
打ち上げ日 Feb 23, 2025
運用期間 1.1 years
タイプ internet

技術仕様

分類 Payload
質量 730.00 kg
乾燥質量 700.00 kg
総質量 730.00 kg
長さ 0.30 m
直径 4.10 m
スパン 29.00 m
形状 Box + pan
製造者 SPXS
バスタイプ Starlink V2M
フェーズステータス In Orbit
所有者/国 SPXS/US

Most Searched